This is the latest recevied weather packets stored in our database for station/object N8BAP. If no packets are shown the sender has not sent any weather packets the latest 10 day(s).
| Time | Temp. | Humidity | Pressure | Rain* | Wind** | Luminosity | Snow |
|---|---|---|---|---|---|---|---|
| 1777502502 | 16.67° C | 66% | 1015.7 hPa | 0 mm | - | 95 W/m² | - |
| 1777502199 | 16.67° C | 68% | 1015.5 hPa | 0 mm | - | 175 W/m² | - |
| 1777501897 | 17.22° C | 64% | 1015.6 hPa | 0 mm | - | 102 W/m² | - |
| 1777501593 | 16.67° C | 71% | 1015.3 hPa | 0 mm | - | 267 W/m² | - |
| 1777501291 | 16.11° C | 73% | 1015.1 hPa | 0 mm | - | 92 W/m² | - |
| 1777500989 | 16.67° C | 72% | 1015.2 hPa | 0 mm | - | 64 W/m² | - |
| 1777500686 | 17.22° C | 70% | 1015 hPa | 0 mm | - | 76 W/m² | - |
| 1777500382 | 17.78° C | 71% | 1015.1 hPa | 0 mm | - | 321 W/m² | - |
| 1777500078 | 17.78° C | 70% | 1015.1 hPa | 0 mm | - | 324 W/m² | - |
| 1777499775 | 16.67° C | 73% | 1014.8 hPa | 0 mm | - | 388 W/m² | - |
| 1777499471 | 16.67° C | 71% | 1014.8 hPa | 0 mm | - | 268 W/m² | - |
| 1777499170 | 16.67° C | 72% | 1015 hPa | 0 mm | - | 237 W/m² | - |
| 1777498867 | 16.67° C | 71% | 1014.9 hPa | 0 mm | - | 205 W/m² | - |
| 1777498563 | 16.67° C | 70% | 1015 hPa | 0 mm | - | 118 W/m² | - |
| 1777498259 | 16.67° C | 72% | 1014.9 hPa | 0 mm | - | 250 W/m² | - |
| 1777497958 | 16.67° C | 74% | 1014.8 hPa | 0 mm | - | 154 W/m² | - |
| 1777497653 | 16.67° C | 74% | 1014.8 hPa | 0 mm | - | 111 W/m² | - |
| 1777497350 | 16.67° C | 73% | 1014.8 hPa | 0 mm | - | 257 W/m² | - |
| 1777497045 | 16.67° C | 73% | 1014.8 hPa | 0 mm | - | 203 W/m² | - |
| 1777496743 | 16.67° C | 74% | 1014.9 hPa | 0 mm | - | 491 W/m² | - |
| 1777496439 | 16.67° C | 71% | 1014.8 hPa | 0 mm | - | 198 W/m² | - |
| 1777496136 | 17.22° C | 71% | 1014.8 hPa | 0 mm | - | 494 W/m² | - |
| 1777495832 | 17.22° C | 72% | 1015 hPa | 0 mm | - | 270 W/m² | - |
| 1777495528 | 16.67° C | 76% | 1014.8 hPa | 0 mm | - | 511 W/m² | - |
| 1777495224 | 16.67° C | 74% | 1014.9 hPa | 0 mm | - | 529 W/m² | - |
* Rain latest hour (hover to see other rain measurements)
** Current wind speed in m/s (hover to see current wind gust speed)